Location: San Vito
(41.8833°N, 12.9833°E)
Time: 07:21:45
(UTC+00:00)

PSLV R/B - Pass Details

Date: 17 November 2019
Orbit: 505 x 579 km, 97.8° (Epoch: 09 December)

Event Time Altitude Azimuth Distance (km) Brightness Sun altitude
Rises 04:41:26 0° 4° (N) 2,675 7.2 -14.6°
Reaches altitude 10° 04:43:37 10° 356° (N) 1,793 6.3 -14.2°
Maximum altitude 04:47:12 38° 288° (WNW) 844 4.2 -13.5°
Drops below altitude 10° 04:50:51 10° 220° (SW) 1,821 6.2 -12.9°
Sets 04:53:06 0° 212° (SSW) 2,723 7.2 -12.5°
